User: anonymous   Login
Location: Bailen
(14.1842°N, 120.7958°E)
Time: 21:23:42
(UTC+00:00)
Language:

Lacrosse 4 Rocket - Orbit

View from above orbital plane
View from above orbital plane
View from above satellite
View from above satellite

Ground track
Ground track

The orbit is defined by the following mean orbital elements,

1 26474U          26069.49164611 +.00000000 +00000-0 +34475-3 0 00007
2 26474  67.9902  38.2551 0038655  34.4661 325.8983 15.09572482    04
Epoch (UTC): 10 March 2026 11:47:58
Eccentricity: 0.0038655
inclination: 67.9902°
perigee height: 511 km
apogee height: 564 km
right ascension of ascending node: 38.2551°
argument of perigee: 34.4661°
revolutions per day: 15.09572482
mean anomaly at epoch: 325.8983°

The dashed part of the orbit path shows where the satellite is in the earth's shadow,  

DLR